SCOUT X-4 R/B, 933

Orbit data source: Space-Track

SCOUT X-4 R/B, 933 is space debris in LEO originally from a launch on Sat, 21 Nov 1964 UTC launched from the Air Force Western Test Range (AFWTR). Debris objects in space refer to the collection of defunct objects orbiting the Earth. Examples of debris include non-operational satellites, rocket bodies, and fragments generated from explosions, collisions, or faulty payload assembly.

Loading next visibility...
SCOUT X-4 R/B details
Identifier
933, 1964-076C
Orbit
LEO
Last TLE update14 hours ago
Origin
Flag of USNASA LaRC (US)
ManufacturerABL
MissionSpacecraft
Bus & MotorALTAIR, Unknown motor
Mass33 kg wet, 33 kg dry
Launch date (UTC)
1964-11-21 (60 years ago)
Launch vehicleUnknown
Launch site
Air Force Western Test Range (AFWTR)
Object type
Payload
Rocket body
Debris
Shape & HBRCyl, 1.5 m
Radar Cross Section0.687 m², Medium (>0.1 m² and < 1m²)

Expand to show TLE details & history

TLE from 14 hours ago
0 SCOUT X-4 R/B
1 00933U 64076C   24356.67684120  .00001471  00000-0  49147-3 0  9993
2 00933  81.3354 217.9338 1055491 175.4015 185.7806 12.81103174767072
Epoch: 2024-12-21T16:14Z
Definitive object data (Epoch: 2024-12-21T16:14:39.079Z)
Latitude-0.00008°
Longitude-116.45361°
Altitude2,150.89 km
Speed6.468 km/s
True Right ascension14h 31m 44s
True Declination0° 00' 00"
Sunlit
Object was in daylight at TLE epoch
Visualization TLE readout
Latitude53.16851°
Longitude51.4177°
Altitude756.496 km
Speed7.762 km/s
Apparent Right ascension20h 54m 00s
Apparent Declination21° 57' 10"
Sunlit
Object is in full shadow
Visualization observer readout
Local Sidereal Time05:08:14
Azimuth308.539° NW
Elevation-8.819°
Doppler factor1
Orbital elements
Apogee altitude2,148.383 km
Perigee altitude520.293 km
Semi-major axis7,712.475 km
Eccentricity0.1055491
Inclination81.3354°
RAAN217.9338°
Arg. of periapsis175.4015°
True anomaly184.70435°
Mean anomaly185.7806°
Eccentric anomaly185.22941°
Mean motion3.20444 °/min
BSTAR0.00049147
Orbital period112.34 mins
Loading maneuver chart data...
Loading historical data...
Loading historical data...
Loading historical data...
Loading historical data...
Loading historical data...
Loading historical data...
Loading historical data...

SCOUT X-4 R/B Visibility forecast

Observer location: undefined°, undefined

Span
Click to sort rows by Start time (UTC) header in descending order
Start Az.
Max El. time (UTC)
Max El. Az.
Max El.
End time (UTC)
End Az.
19 mins2024-12-22 14:48:32.330Z159.813° S2024-12-22 14:58:32.330Z98.868° ESE37.449°2024-12-22 15:07:32.330Z21.715° NNE
18 mins2024-12-22 16:42:32.330Z217° SW2024-12-22 16:52:32.330Z284.625° WNW35.617°2024-12-22 17:00:32.330Z353.812° N
7 mins2024-12-23 02:40:32.330Z354.751° N2024-12-23 02:43:32.330Z22.708° NE42.881°2024-12-23 02:47:32.330Z166.507° S
|